Probability
0 0 0 0 0 0 0 0 0 0 0 0 0 0 0 0 0 0 0 0 0 0 0 0 0 0 0 0 0 0 0 0 0 0 0 0 0 0 0 0 0 0 0
0 0 0 0 0 0 0 0 0 0 0 0 0 0 0 0 0 0 0 0 0 0 0 0 0 0 0 0 0 0 0 0 0 0 0 0 0 0 0 0 0 0 0
0 0 0 0 0 0 0 0 0 0 0 0 0 0 0 0 0 0 0 0 0 0 0 0 0 0 0 0 0 0 0 0 0 0 0 0 0 0 0 0 0 0 0
0 0 0 0 0 0 0 0 0 0 0 0 0 0 0 0 0 0 0 0 0 0 0 0 0 0 0 0 0 0 0 0 0 0 0 0 0 0 0 0 0 0 0
0 0 0 0 0 0 0 0 0 0 0 0 0 0 0 0 0 0 0 0 0 0 0 0 0 0 0 0 0 0 0 0 0 0 0 0 0 0 0 0 0 0 0
0 0 0 0 0 0 0 0 0 0 0 0 0 0 0 0 0 0 0 0 0 0 0 0 0 0 0 0 0 0 0 0 0 0 0 0 0 0 0 0 0 0 0
0 0 0 0 0 0 0 0 0 0 0 0 0 0 0 0 0 0 0 0 0 0 0 0 0 0 0 0 0 0 0 0 0 0 0 0 0 0 0 0 0 0 0
0 0 0 0 0 0 0 0 0 0 0 0 0 0 0 0 0 0 0 0 0 0 0 0 0 0 0 0 0 0 0 0 0 0 0 0 0 0 0 0 0 0 0
0 0 0 0 0 0 0 0 0 0 0 0 0 0 0 0 0 0 0 0 0 0 0 0 0 0 0 0 0 0 0 0 0 0 0 0 0 0 0 0 0 0 0
0 0 0 0 0 0 0 0 0 0 0 0 0 0 0 0 0 0 0 0 0 0 0 0 0 0 0 0 0 0 0 0 0 0 0 0 0 0 0 0 0 0 0
0 0 0 0 0 0 0 0 0 0 0 0 0 0 0 0 0 0 0 0 0 0 0 0 0 0 0 0 0 0 0 0 0 0 0 0 0 0 0 0 0 0 0
0 0 0 0 0 0 0 0 0 0 0 0 0 0 0 0 0 0 0 0 0 0 0 0 0 0 0 0 0 0 0 0 0 0 0 0 0 0 0 0 0 0 0
0 0 0 0 0 0 0 0 0 0 0 0 0 0 0 0 0 0 0 0 0 0 0 0 0 0 0 0 0 0 0 0 0 0 0 0 0 0 0 0 0 0 0
0 0 0 0 0 0 0 0 0 0 0 0 0 0 0 0 0 0 0 0 0 0 0 0 0 0 0 0 0 0 0 0 0 0 0 0 0 0 0 0 0 0 0
0 0 0 0 0 0 0 0 0 0 0 0 0 0 0 0 0 0 0 0 0 0 0 0 0 0 0 0 0 0 0 0 0 0 0 0 0 0 0 0 0 0 0
0 0 0 0 0 0 0 0 0 0 0 0 0 0 0 0 0 0 0 0 0 0 0 0 0 0 0 0 0 0 0 0 0 0 0 0 0 0 0 0 0 0 0
0 0 0 0 0 0 0 0 0 0 0 0 0 0 0 0 0 0 0 0 0 0 0 0 0 0 0 0 0 0 0 0 0 0 0 0 0 0 0 0 0 0 0
0 0 0 0 0 0 0 0 0 0 0 0 0 0 0 0 0 0 0 0 0 0 0 0 0 0 0 0 0 0 0 0 0 0 0 0 0 0 0 0 0 0 0
0 0 0 0 0 0 0 0 0 0 0 0 0 0 0 0 0 0 0 0 0 0 0 0 0 0 0 0 0 0 0 0 0 0 0 0 0 0 0 0 0 0 0
0 0 0 0 0 0 0 0 0 0 0 0 0 0 0 0 0 0 0 0 0 0 0 0 0 0 0 0 0 0 0 0 0 0 0 0 0 0 0 0 0 0 0
0 0 0 0 0 0 0 0 0 0 0 0 0 0 0 0 0 0 0 0 0 0 0 0 0 0 0 0 0 0 0 0 0 0 0 0 0 0 0 0 0 0 0
0 0 0 0 0 0 0 0 0 0 0 0 0 0 0 0 0 0 0 0 0 0 0 0 0 0 0 0 0 0 0 0 0 0 0 0 0 0 0 0 0 0 0
0 0 0 0 0 0 0 0 0 0 0 0 0 0 0 0 0 0 0 0 0 0 0 0 0 0 0 0 0 0 0 0 0 0 0 0 0 0 0 0 0 0 0
0 0 0 0 0 0 0 0 0 0 0 0 0 0 0 0 0 0 0 0 0 0 0 0 0 0 0 0 0 0 0 0 0 0 0 0 0 0 0 0 0 0 0
0 0 0 0 0 0 0 0 0 0 0 0 0 0 0 0 0 0 0 0 0 0 0 0 0 0 0 0 0 0 0 0 0 0 0 0 0 0 0 0 0 0 0
0 0 0 0 0 0 0 0 0 0 0 0 0 0 0 0 0 0 0 0 0 0 0 0 0 0 0 0 0 0 0 0 0 0 0 0 0 0 0 0 0 0 0
Height
5814 5813 5812 5810 5808 5806 5803 5800 5798 5795 5791 5788 5784 5781 5778 5775 5772 5768 5765 5762 5759 5757 5755 5754 5754 5754 5754 5755 5757 5759 5761 5764 5767 5770 5774 5778 5782 5787 5792 5796 5801 5806 5810
5812 5810 5809 5808 5806 5804 5801 5799 5796 5793 5790 5787 5783 5780 5777 5774 5771 5768 5765 5761 5758 5756 5754 5753 5752 5752 5753 5753 5755 5757 5759 5761 5764 5767 5770 5774 5778 5782 5787 5791 5796 5800 5805
5809 5808 5807 5805 5803 5801 5799 5797 5794 5791 5789 5786 5783 5780 5777 5774 5771 5767 5764 5761 5758 5755 5754 5752 5751 5751 5751 5752 5753 5754 5756 5758 5761 5763 5766 5770 5774 5778 5782 5786 5791 5795 5800
5806 5805 5804 5803 5801 5799 5797 5795 5792 5790 5787 5784 5782 5779 5776 5773 5770 5767 5764 5761 5758 5755 5753 5752 5750 5750 5750 5750 5751 5752 5754 5756 5758 5760 5763 5766 5770 5774 5778 5782 5786 5790 5794
5803 5802 5801 5800 5798 5797 5795 5792 5790 5788 5785 5783 5781 5778 5775 5772 5770 5767 5764 5761 5758 5756 5754 5752 5750 5749 5749 5749 5749 5750 5751 5753 5755 5758 5760 5763 5766 5770 5773 5777 5781 5784 5789
5799 5798 5797 5796 5795 5794 5792 5790 5788 5786 5784 5781 5779 5777 5774 5772 5769 5767 5764 5761 5758 5756 5754 5752 5750 5749 5748 5748 5748 5748 5750 5751 5753 5755 5757 5760 5762 5766 5769 5772 5775 5779 5783
5795 5795 5794 5793 5792 5790 5789 5787 5785 5783 5781 5779 5777 5775 5773 5771 5768 5766 5763 5761 5758 5756 5754 5752 5750 5749 5748 5747 5747 5748 5748 5750 5751 5753 5755 5757 5759 5762 5765 5767 5770 5774 5777
5791 5790 5790 5789 5788 5786 5785 5784 5782 5780 5779 5777 5775 5773 5771 5769 5767 5765 5763 5760 5758 5756 5754 5752 5750 5749 5748 5747 5747 5747 5747 5748 5749 5751 5752 5754 5756 5758 5760 5763 5765 5768 5771
5786 5786 5785 5784 5783 5782 5781 5780 5779 5777 5775 5774 5772 5770 5769 5767 5765 5763 5761 5759 5757 5755 5753 5752 5750 5749 5748 5747 5747 5746 5746 5747 5747 5748 5749 5751 5752 5754 5756 5758 5761 5763 5766
5781 5781 5780 5779 5779 5778 5777 5776 5775 5773 5772 5770 5769 5767 5766 5764 5762 5761 5759 5758 5756 5754 5753 5751 5749 5748 5747 5746 5746 5745 5745 5745 5745 5746 5747 5748 5749 5751 5752 5754 5756 5759 5761
5775 5775 5774 5774 5773 5772 5772 5771 5770 5769 5768 5766 5765 5764 5762 5761 5760 5758 5757 5755 5754 5752 5751 5750 5748 5747 5746 5745 5744 5744 5743 5743 5743 5744 5744 5745 5746 5747 5749 5750 5752 5754 5755
5768 5768 5768 5767 5767 5766 5766 5765 5765 5764 5763 5762 5761 5760 5759 5757 5756 5755 5754 5752 5751 5750 5749 5748 5746 5745 5744 5743 5742 5742 5742 5742 5742 5742 5742 5742 5743 5744 5745 5746 5747 5749 5750
5760 5760 5760 5760 5760 5760 5759 5759 5759 5758 5758 5757 5756 5755 5754 5753 5752 5751 5750 5749 5748 5747 5746 5745 5744 5743 5742 5741 5740 5739 5739 5739 5739 5739 5739 5739 5740 5740 5741 5742 5743 5744 5745
5751 5751 5751 5751 5751 5752 5752 5752 5752 5751 5751 5751 5750 5749 5749 5748 5747 5746 5745 5745 5744 5743 5742 5741 5740 5739 5739 5738 5737 5737 5736 5736 5736 5736 5736 5736 5736 5736 5737 5737 5738 5738 5739
5741 5741 5741 5742 5742 5742 5743 5743 5743 5744 5744 5744 5743 5743 5742 5742 5741 5741 5740 5739 5739 5738 5737 5737 5736 5735 5735 5734 5733 5733 5732 5732 5732 5731 5732 5732 5732 5732 5732 5732 5732 5733 5733
5731 5731 5731 5731 5732 5732 5733 5734 5734 5735 5735 5735 5736 5736 5735 5735 5735 5734 5734 5733 5733 5733 5732 5732 5731 5731 5730 5729 5729 5728 5728 5728 5727 5727 5727 5726 5726 5726 5726 5726 5726 5726 5726
5719 5719 5720 5720 5721 5722 5722 5723 5724 5725 5725 5726 5727 5727 5727 5727 5727 5727 5727 5727 5726 5726 5726 5726 5726 5725 5725 5724 5724 5723 5723 5722 5722 5722 5721 5721 5720 5720 5720 5720 5720 5719 5719
5706 5706 5707 5708 5709 5710 5711 5712 5713 5714 5715 5716 5717 5717 5718 5718 5719 5719 5719 5719 5719 5719 5719 5719 5719 5718 5718 5718 5717 5717 5717 5716 5716 5715 5715 5714 5714 5714 5713 5713 5712 5712 5711
5692 5693 5694 5695 5696 5697 5698 5700 5701 5702 5704 5705 5706 5707 5708 5708 5709 5710 5710 5710 5711 5711 5712 5711 5711 5711 5711 5710 5710 5710 5710 5709 5709 5708 5708 5708 5707 5707 5706 5705 5705 5704 5703
5678 5679 5680 5682 5683 5684 5686 5687 5689 5690 5692 5693 5695 5696 5697 5698 5699 5700 5701 5701 5702 5702 5703 5703 5703 5703 5702 5702 5702 5702 5702 5702 5701 5701 5700 5700 5699 5699 5698 5697 5696 5695 5694
5664 5665 5666 5667 5669 5670 5672 5674 5675 5677 5679 5681 5683 5684 5686 5687 5688 5689 5690 5691 5692 5693 5693 5694 5694 5694 5694 5694 5694 5694 5694 5693 5693 5692 5692 5691 5691 5690 5689 5688 5687 5686 5685
5649 5650 5651 5653 5654 5656 5658 5660 5662 5664 5666 5668 5669 5671 5673 5674 5676 5678 5679 5681 5682 5682 5683 5684 5684 5684 5685 5685 5685 5685 5684 5684 5684 5683 5683 5682 5681 5681 5680 5679 5678 5677 5675
5635 5636 5638 5639 5640 5642 5644 5646 5648 5650 5652 5654 5656 5658 5660 5662 5663 5666 5667 5669 5670 5671 5672 5673 5673 5674 5674 5675 5675 5675 5675 5674 5674 5674 5673 5672 5671 5671 5670 5669 5667 5666 5665
5622 5623 5624 5626 5627 5629 5631 5633 5634 5636 5638 5640 5642 5644 5646 5648 5650 5653 5655 5656 5658 5659 5661 5662 5662 5663 5664 5664 5664 5664 5664 5664 5664 5663 5662 5662 5661 5660 5659 5658 5656 5655 5653
5608 5609 5610 5612 5613 5615 5617 5619 5621 5622 5624 5626 5628 5630 5632 5635 5637 5639 5642 5644 5645 5647 5648 5650 5651 5652 5652 5653 5653 5653 5653 5653 5653 5652 5651 5651 5650 5649 5648 5646 5645 5643 5641
5594 5596 5597 5598 5600 5601 5603 5605 5607 5608 5610 5612 5614 5616 5619 5621 5623 5626 5628 5631 5632 5634 5636 5637 5638 5639 5640 5641 5641 5641 5642 5642 5641 5641 5640 5640 5639 5638 5636 5635 5633 5631 5629
Wind_Speed
10 11 12 13 13 14 14 15 15 16 16 16 16 16 15 15 15 14 14 13 11 10 8 7 7 7 8 10 12 14 16 17 19 22 25 27 29 30 32 33 32 32 32
11 11 11 12 13 14 14 14 15 15 15 15 15 15 15 15 14 14 14 13 12 9 7 6 6 6 7 9 11 13 15 15 17 19 22 25 27 28 30 31 32 31 31
12 12 12 13 13 14 14 14 15 15 15 15 15 15 14 14 14 14 14 13 11 9 7 6 5 5 6 8 10 12 14 14 15 18 20 23 25 26 28 29 30 30 31
13 13 13 13 14 14 14 14 14 14 14 14 14 14 14 13 13 13 14 13 11 10 8 6 5 5 5 6 8 10 12 14 15 16 17 20 23 24 27 28 29 30 31
13 14 14 14 14 14 14 14 14 14 14 14 13 13 13 13 13 13 13 12 11 10 8 7 5 4 4 5 7 8 11 13 14 15 15 16 20 22 23 25 28 29 29
14 14 14 15 14 14 14 14 14 14 14 13 13 13 12 12 12 12 12 12 11 10 8 7 6 5 4 5 6 8 10 11 13 14 14 15 17 21 22 22 24 26 27
15 15 15 15 15 15 14 14 14 14 13 13 13 12 12 12 12 12 11 11 11 10 9 7 6 6 4 4 5 6 8 10 12 13 14 15 16 19 20 21 24 24 25
17 16 16 16 16 16 15 14 14 14 14 13 13 13 13 13 12 12 11 11 11 10 9 8 6 5 4 4 5 6 7 9 10 12 13 15 17 17 19 21 24 24 25
18 18 17 17 17 17 16 15 15 15 14 14 14 14 13 13 12 12 11 11 11 10 9 8 7 6 5 5 5 6 7 8 10 11 12 13 16 16 17 19 21 23 24
20 19 19 18 18 18 17 17 16 16 15 15 14 14 14 13 13 12 12 11 11 10 10 9 8 7 6 6 6 6 7 7 8 10 11 12 14 16 17 18 19 20 22
21 21 21 20 20 19 19 18 18 17 17 16 16 15 14 14 14 13 12 12 11 11 10 9 8 8 7 7 7 7 7 7 8 9 10 12 13 14 15 17 18 19 20
24 23 23 23 22 21 21 20 20 19 18 18 17 16 16 15 15 14 13 12 12 11 11 10 10 9 8 8 8 8 8 8 8 9 10 11 12 13 14 16 17 18 20
27 26 26 26 25 24 23 23 22 21 20 19 19 18 17 17 16 15 15 14 13 13 12 12 11 11 10 10 9 9 9 9 9 10 10 11 12 14 15 16 17 18 19
30 29 28 28 27 27 26 25 24 24 22 21 21 20 19 18 18 17 16 16 15 15 14 14 13 12 12 11 11 11 11 11 11 12 12 13 14 14 15 16 18 19 20
31 30 30 30 30 29 29 28 27 26 25 24 23 22 21 20 20 19 18 18 17 16 16 16 15 14 14 13 13 13 13 13 13 14 14 15 15 16 16 17 18 19 20
34 33 33 32 32 31 31 30 29 28 28 27 25 24 23 22 22 22 21 20 19 19 18 17 17 17 16 15 15 15 15 15 15 16 16 17 17 17 18 19 19 20 21
36 35 35 35 34 34 33 32 31 30 30 29 28 27 26 25 24 24 23 23 22 21 20 20 19 19 19 18 18 17 17 17 17 17 18 18 19 19 20 20 21 22 23
38 37 37 36 36 36 35 35 34 33 32 31 30 30 29 28 27 26 25 25 24 23 22 22 21 21 21 20 20 19 19 19 19 20 20 20 20 21 22 22 23 23 24
39 38 38 37 37 37 37 37 36 35 34 34 33 32 31 30 30 29 28 27 26 25 24 24 23 23 23 22 22 22 22 22 22 21 22 22 22 22 23 23 24 25 26
39 39 39 39 38 38 38 38 38 37 37 36 35 34 34 33 32 31 30 29 28 27 26 26 25 25 24 24 24 24 24 24 24 24 24 24 24 25 25 26 26 27 27
39 39 40 40 40 39 39 39 39 38 38 38 37 36 36 35 34 34 33 32 31 30 29 28 27 27 26 26 26 26 26 26 27 27 26 26 27 27 28 28 28 29 29
40 39 40 40 41 40 40 40 39 39 39 39 39 39 38 37 37 36 35 34 33 32 31 30 29 29 28 28 28 28 27 27 27 28 28 29 29 29 29 30 30 31 31
40 39 38 39 40 40 40 40 40 40 40 40 40 40 40 39 39 38 37 36 35 34 33 32 31 31 30 30 29 29 29 29 30 30 30 30 30 30 31 31 32 32 33
40 40 39 39 39 40 40 41 40 40 40 40 40 40 40 40 39 39 38 37 36 36 35 34 33 33 32 32 31 31 31 31 31 31 31 31 31 32 32 33 33 34 34
41 40 40 39 40 40 40 41 41 41 41 40 40 40 40 40 40 39 39 38 38 37 36 36 35 35 34 34 34 34 34 33 33 33 33 33 33 33 33 34 34 35 35
41 41 40 40 41 41 41 42 42 42 42 41 41 41 41 41 40 40 39 40 39 38 38 38 37 37 36 36 36 35 35 35 35 35 34 34 34 34 35 35 35 36 36
Wind_Direction
301 307 312 316 319 323 327 330 334 338 341 343 343 344 346 347 347 347 345 343 338 329 316 296 275 266 250 237 227 225 225 225 225 225 223 221 221 220 219 219 220 221 221
296 303 308 312 317 321 325 329 333 336 340 342 344 345 347 348 348 348 348 346 343 340 331 308 282 266 253 236 226 224 225 224 226 226 223 222 221 221 219 219 221 222 223
294 298 303 309 313 318 322 325 330 334 338 342 344 346 347 348 349 349 349 348 349 347 340 322 296 273 255 237 226 225 225 224 226 226 223 222 221 221 220 221 222 224 224
293 296 300 305 309 312 316 321 326 329 332 336 339 342 344 346 349 350 351 352 352 349 346 335 310 288 261 238 232 229 225 224 224 223 222 222 223 225 225 225 225 226 226
291 294 297 301 305 309 313 317 321 325 328 331 334 338 342 345 347 349 351 353 353 351 349 343 328 305 275 252 246 238 229 225 224 222 222 222 224 224 223 224 225 226 228
289 291 293 295 298 303 309 313 316 318 322 325 329 333 337 341 344 346 348 351 352 351 347 343 338 327 294 267 259 249 238 232 227 226 227 224 225 225 227 227 227 228 228
286 288 290 292 294 297 302 307 310 312 315 319 323 326 329 332 335 339 344 347 349 350 349 344 337 331 319 292 270 253 243 242 237 238 238 234 230 228 230 231 229 230 232
284 285 286 289 291 293 297 301 304 306 309 313 316 318 320 323 326 329 333 339 342 343 345 344 338 329 327 309 283 266 253 248 246 244 245 242 238 235 235 234 232 233 235
283 283 285 287 289 291 293 296 298 301 303 306 310 312 313 315 319 322 325 328 332 334 335 335 334 328 317 303 290 281 266 253 247 242 243 244 242 240 240 238 237 237 238
280 281 282 283 285 288 290 291 293 296 298 300 303 306 308 310 312 315 317 319 323 325 326 325 322 321 316 305 291 283 275 265 256 247 245 245 244 244 245 243 242 242 242
276 277 278 279 281 283 285 286 288 290 292 294 296 298 301 304 306 308 309 310 313 316 318 318 314 312 308 302 296 288 278 270 265 256 252 250 246 245 245 245 246 246 247
273 273 275 276 277 278 279 281 282 285 287 289 290 291 292 295 298 299 301 302 303 306 308 310 309 306 304 300 294 287 280 273 266 260 257 252 252 251 250 249 249 251 253
273 272 272 273 274 275 275 276 278 279 281 283 285 286 287 288 290 292 293 294 295 297 298 300 301 300 298 295 292 287 282 276 270 265 262 258 258 256 254 253 253 254 256
270 270 270 270 271 272 273 273 274 275 277 278 279 281 282 283 285 286 287 288 288 290 291 292 293 294 293 292 289 284 280 278 275 268 266 264 264 262 262 260 259 259 260
269 269 267 267 268 269 270 270 270 271 272 273 274 276 277 278 279 281 282 283 283 285 286 286 287 288 289 287 285 283 280 277 275 272 269 269 268 266 267 267 267 266 266
268 268 268 266 266 266 267 267 268 268 268 269 270 271 273 274 275 276 278 279 279 280 281 282 283 283 284 284 283 281 280 278 276 274 272 271 269 269 269 270 270 270 271
268 267 267 267 266 265 265 265 265 265 266 266 267 268 269 270 271 273 274 275 276 276 277 278 279 280 281 281 280 279 279 278 278 276 275 274 274 273 272 272 272 273 273
267 267 266 266 266 264 263 263 263 263 263 264 265 266 266 267 268 269 270 272 273 274 275 276 277 278 278 278 278 278 278 278 278 278 277 277 276 276 276 275 276 276 276
267 266 265 265 265 264 263 262 261 261 261 261 262 263 264 265 265 266 267 268 270 272 273 274 275 276 277 277 277 277 277 278 278 279 279 278 278 279 278 278 278 279 279
267 266 265 264 264 264 263 262 261 261 261 260 260 260 261 262 263 263 264 266 267 269 270 272 273 274 275 276 276 276 277 278 278 278 279 279 279 279 280 280 280 281 280
267 265 264 263 262 262 262 261 261 260 260 259 259 259 259 260 261 261 262 264 265 267 268 269 270 271 272 273 275 276 277 277 278 278 279 280 280 281 280 281 281 282 282
265 264 263 262 261 260 260 260 260 260 260 259 258 258 258 258 259 260 261 262 264 265 266 266 267 268 270 272 274 275 276 276 277 278 279 280 281 281 281 282 282 283 283
265 264 263 262 262 260 260 260 260 260 260 259 259 258 257 257 258 259 260 260 261 263 265 266 266 267 268 270 272 274 275 276 277 278 279 280 281 281 282 282 283 284 285
265 265 264 262 261 260 260 260 260 260 261 260 260 259 258 257 257 258 258 259 260 262 263 265 266 267 268 269 271 272 274 275 277 278 278 280 281 282 283 284 284 285 286
265 264 263 262 261 259 259 259 259 260 260 261 260 259 258 257 256 256 257 258 259 260 262 263 265 266 267 268 270 272 273 274 276 277 279 280 281 282 284 285 286 286 287
264 263 263 262 261 260 260 260 259 259 259 259 259 259 258 256 255 255 256 258 259 260 262 264 264 265 267 269 270 270 271 273 275 277 279 280 281 282 284 285 286 287 288